Content
SEND FEEDBACK

Daily
Averages
Monthly
Summary
United States of America

SOUTH LAKE TAHOE - AIRPORT, CALIFORNIA


Home > North America > United States > California
Elevation: 6250 feet     Latitude: 38 54N     Longitude: 120 00W

WEATHER
 
SELECT A DAY
Number of Records: 178,607;   Date Range: 1/1/95 - 12/18/14
 
SHARE

PRINT THIS DATA

[ ← Previous Day ]
WEATHER ALMANAC - JULY 8, 2013
[ Next Day → ]
[ °C ]   °F
We're sorry. There is no daily almanac available for South Lake Tahoe - Airport, California on July 8, 2013.
WEATHER BY HOUR - JULY 8, 2013
[ °C ]   °F
Local TimeTemperatureDewpointHumidityBarometerVisibilityWind DirectionWind SpeedGust SpeedPrecipitationEventsConditions
1:53 AM54.0 °F35.1 °F49 %29.95 in10.0 miCalmClear
2:53 AM50.0 °F37.0 °F61 %29.96 in10.0 miCalmClear
3:53 AM50.0 °F36.0 °F59 %29.98 in10.0 miCalmClear
4:53 AM48.0 °F36.0 °F63 %29.99 in10.0 miCalmClear
5:53 AM46.9 °F35.1 °F63 %30.01 in10.0 miCalmClear
6:53 AM48.0 °F34.0 °F58 %30.03 in10.0 miCalmClear
7:53 AM59.0 °F37.0 °F44 %30.02 in10.0 miCalmClear
8:53 AM72.0 °F37.9 °F29 %29.99 in10.0 miCalmClear
9:53 AM77.0 °F21.9 °F13 %30.01 in10.0 miSSW (210°)15.0 mph25.3 mphClear
10:53 AM79.0 °F23.0 °F13 %30.02 in10.0 miSouth (190°)11.5 mph21.9 mphClear
11:53 AM80.1 °F19.9 °F11 %30.02 in10.0 miSSW (210°)12.7 mph23.0 mphClear
12:53 PM82.0 °F23.0 °F11 %30.02 in10.0 miSouth (190°)12.7 mph23.0 mphClear
1:53 PM82.0 °F23.0 °F11 %30.02 in10.0 miSSW (200°)12.7 mph25.3 mphClear
2:53 PM82.9 °F23.0 °F11 %30.03 in10.0 miSouth (170°)10.4 mph21.9 mphClear
3:53 PM82.0 °F28.9 °F14 %30.04 in10.0 miVariable6.9 mph19.6 mphClear
4:53 PM82.0 °F30.9 °F16 %30.05 in10.0 miSSW (200°)8.1 mph19.6 mphClear
5:53 PM79.0 °F33.1 °F19 %30.06 in10.0 miSSW (210°)11.5 mph19.6 mphClear
6:53 PM75.9 °F30.0 °F19 %30.08 in10.0 miVariable6.9 mph19.6 mphClear
7:53 PM73.0 °F28.9 °F20 %30.07 in10.0 miVariable4.6 mphClear
8:53 PM66.0 °F30.9 °F27 %30.06 in10.0 miCalmClear
9:53 PM61.0 °F32.0 °F34 %30.09 in10.0 miSouth (180°)3.5 mphClear
10:53 PM59.0 °F33.1 °F38 %30.09 in10.0 miCalmClear
11:53 PM55.0 °F30.9 °F40 %30.11 in10.0 miCalmClear
Hourly data recorded from KTVL, located miles away from South Lake Tahoe - Airport, California







STORIES FROM OUR PARTNERS